User: anonymous   Login
Location: Zagreb
(45.8000°N, 16.0000°E)
Time: 00:47:04
(UTC+01:00)
Language:

Transit 2A Rocket - Orbit

View from above orbital plane
View from above orbital plane
View from above satellite
View from above satellite

Ground track
Ground track

The orbit data is extracted from the following two-line orbital elements,

1    47U 60007C   20025.58348748 -.00000072 +00000-0 +89555-5 0  9997
2    47 066.6648 179.7038 0222398 047.1976 314.7589 14.42069659113934
Epoch (UTC): 25 January 2020 14:00:13
Eccentricity: 0.0222398
inclination: 66.6648°
perigee height: 593 km
apogee height: 910 km
right ascension of ascending node: 179.7038°
argument of perigee: 47.1976°
revolutions per day: 14.42069659
mean anomaly at epoch: 314.7589°
orbit number at epoch: 11393

The dashed part of the orbit path shows where the satellite is in the earth's shadow,  

DLR